Hourly Weather Gogolevo

Today, 7 May, Friday

Time Temperature Precipitation Wind Pressure Humidity
00:00 +3°C° 0 mm 5 mps 737 mmHg 89%
01:00 +3°C° 0 mm 5 mps 737 mmHg 90%
02:00 +2°C° 0 mm 5 mps 737 mmHg 91%
03:00 +3°C° 0 mm 4 mps 738 mmHg 89%
04:00 +3°C° 0 mm 4 mps 738 mmHg 88%
05:00 +3°C° 0 mm 4 mps 738 mmHg 87%
06:00 +4°C° 0 mm 4 mps 738 mmHg 82%
07:00 +5°C° 0 mm 4 mps 739 mmHg 77%
08:00 +5°C° 0 mm 5 mps 739 mmHg 73%
09:00 +7°C° 0.1 mm 5 mps 739 mmHg 65%
10:00 +8°C° 0.1 mm 6 mps 739 mmHg 57%
11:00 +9°C° 0.1 mm 6 mps 740 mmHg 48%
12:00 +10°C° 0.1 mm 6 mps 740 mmHg 47%
13:00 +10°C° 0.1 mm 5 mps 740 mmHg 45%
14:00 +12°C° 0.1 mm 5 mps 740 mmHg 43%
15:00 +11°C° 0 mm 4 mps 740 mmHg 46%
16:00 +11°C° 0 mm 4 mps 740 mmHg 49%
17:00 +11°C° 0 mm 4 mps 740 mmHg 53%
18:00 +9°C° 0.1 mm 3 mps 740 mmHg 62%
19:00 +8°C° 0.1 mm 3 mps 740 mmHg 71%
20:00 +6°C° 0.1 mm 2 mps 741 mmHg 80%
21:00 +6°C° 0 mm 2 mps 741 mmHg 82%
22:00 +6°C° 0 mm 2 mps 740 mmHg 84%
23:00 +6°C° 0 mm 2 mps 740 mmHg 86%

Tomorrow, 8 May, Saturday

Time Temperature Precipitation Wind Pressure Humidity
00:00 +5°C° 0.2 mm 3 mps 740 mmHg 88%
01:00 +5°C° 0.2 mm 3 mps 739 mmHg 90%
02:00 +5°C° 0.2 mm 3 mps 739 mmHg 91%
03:00 +5°C° 0.8 mm 3 mps 738 mmHg 92%
04:00 +5°C° 0.8 mm 3 mps 738 mmHg 94%
05:00 +5°C° 0.8 mm 4 mps 737 mmHg 95%
06:00 +7°C° 0.2 mm 3 mps 737 mmHg 95%
07:00 +7°C° 0.2 mm 3 mps 737 mmHg 95%
08:00 +7°C° 0.2 mm 3 mps 736 mmHg 95%
09:00 +7°C° 0.2 mm 3 mps 736 mmHg 93%
10:00 +8°C° 0.2 mm 2 mps 736 mmHg 91%
11:00 +8°C° 0.2 mm 2 mps 736 mmHg 90%
12:00 +7°C° 0.2 mm 3 mps 736 mmHg 91%
13:00 +7°C° 0.2 mm 3 mps 737 mmHg 93%
14:00 +5°C° 0.2 mm 4 mps 737 mmHg 94%
15:00 +5°C° 0.1 mm 4 mps 737 mmHg 92%
16:00 +4°C° 0.1 mm 4 mps 738 mmHg 90%
17:00 +4°C° 0.1 mm 4 mps 738 mmHg 89%
18:00 +4°C° 0 mm 4 mps 738 mmHg 90%
19:00 +4°C° 0 mm 4 mps 739 mmHg 91%
20:00 +4°C° 0 mm 4 mps 739 mmHg 92%
21:00 +3°C° 0 mm 4 mps 740 mmHg 91%
22:00 +3°C° 0 mm 4 mps 740 mmHg 91%
23:00 +1°C° 0 mm 4 mps 741 mmHg 91%

Day after tomorrow, 9 May, Sunday

Time Temperature Precipitation Wind Pressure Humidity
00:00 +1°C° 0 mm 4 mps 741 mmHg 90%
01:00 +1°C° 0 mm 4 mps 742 mmHg 89%
02:00 +1°C° 0 mm 4 mps 742 mmHg 88%
03:00 0°C° 0 mm 4 mps 743 mmHg 89%
04:00 0°C° 0 mm 4 mps 744 mmHg 90%
05:00 0°C° 0 mm 3 mps 744 mmHg 90%
06:00 +1°C° 0 mm 4 mps 745 mmHg 82%
07:00 +3°C° 0 mm 4 mps 745 mmHg 74%
08:00 +5°C° 0 mm 4 mps 746 mmHg 66%
09:00 +6°C° 0 mm 4 mps 747 mmHg 57%
10:00 +7°C° 0 mm 5 mps 747 mmHg 48%
11:00 +9°C° 0 mm 5 mps 748 mmHg 39%
12:00 +9°C° 0 mm 5 mps 748 mmHg 40%
13:00 +10°C° 0 mm 5 mps 749 mmHg 40%
14:00 +10°C° 0 mm 5 mps 749 mmHg 41%
15:00 +11°C° 0 mm 4 mps 750 mmHg 42%
16:00 +11°C° 0 mm 4 mps 750 mmHg 43%
17:00 +11°C° 0 mm 3 mps 750 mmHg 45%
18:00 +9°C° 0 mm 3 mps 751 mmHg 52%
19:00 +7°C° 0 mm 2 mps 751 mmHg 60%
20:00 +5°C° 0 mm 2 mps 752 mmHg 67%
21:00 +5°C° 0 mm 2 mps 752 mmHg 69%
22:00 +4°C° 0 mm 2 mps 752 mmHg 70%
23:00 +4°C° 0 mm 2 mps 752 mmHg 72%

10 May, Monday

Time Temperature Precipitation Wind Pressure Humidity
00:00 +3°C° 0 mm 3 mps 753 mmHg 72%
01:00 +3°C° 0 mm 3 mps 753 mmHg 72%
02:00 +3°C° 0 mm 3 mps 753 mmHg 72%
03:00 +4°C° 0 mm 3 mps 753 mmHg 73%
04:00 +4°C° 0 mm 3 mps 753 mmHg 73%
05:00 +5°C° 0 mm 3 mps 754 mmHg 74%
06:00 +5°C° 0 mm 3 mps 754 mmHg 73%
07:00 +6°C° 0 mm 4 mps 754 mmHg 71%
08:00 +7°C° 0 mm 4 mps 754 mmHg 70%
09:00 +10°C° 0 mm 4 mps 754 mmHg 64%
10:00 +12°C° 0 mm 4 mps 754 mmHg 58%
11:00 +15°C° 0 mm 5 mps 754 mmHg 52%
12:00 +17°C° 0 mm 4 mps 754 mmHg 50%
13:00 +18°C° 0 mm 4 mps 754 mmHg 48%
14:00 +19°C° 0 mm 4 mps 755 mmHg 47%
15:00 +19°C° 0 mm 4 mps 755 mmHg 49%
16:00 +19°C° 0 mm 4 mps 755 mmHg 51%
17:00 +19°C° 0 mm 3 mps 755 mmHg 54%
18:00 +17°C° 0 mm 3 mps 755 mmHg 62%
19:00 +13°C° 0 mm 3 mps 755 mmHg 71%
20:00 +12°C° 0 mm 2 mps 755 mmHg 80%
21:00 +10°C° 0 mm 2 mps 756 mmHg 82%
22:00 +10°C° 0 mm 2 mps 756 mmHg 84%
23:00 +9°C° 0 mm 2 mps 756 mmHg 86%

11 May, Tuesday

Time Temperature Precipitation Wind Pressure Humidity
00:00 +8°C° 0 mm 2 mps 756 mmHg 88%
01:00 +8°C° 0 mm 2 mps 756 mmHg 89%
02:00 +8°C° 0 mm 2 mps 757 mmHg 90%
03:00 +8°C° 0 mm 2 mps 757 mmHg 87%
04:00 +8°C° 0 mm 3 mps 757 mmHg 85%
05:00 +9°C° 0 mm 3 mps 757 mmHg 82%
06:00 +11°C° 0 mm 3 mps 757 mmHg 73%
07:00 +13°C° 0 mm 3 mps 757 mmHg 64%
08:00 +15°C° 0 mm 4 mps 757 mmHg 55%
09:00 +17°C° 0 mm 4 mps 757 mmHg 50%
10:00 +18°C° 0 mm 4 mps 757 mmHg 45%
11:00 +20°C° 0 mm 4 mps 757 mmHg 39%
12:00 +20°C° 0 mm 4 mps 757 mmHg 38%
13:00 +21°C° 0 mm 4 mps 756 mmHg 38%
14:00 +21°C° 0 mm 4 mps 756 mmHg 37%
15:00 +21°C° 0 mm 3 mps 756 mmHg 40%
16:00 +21°C° 0 mm 3 mps 756 mmHg 43%
17:00 +21°C° 0 mm 3 mps 755 mmHg 46%
18:00 +18°C° 0 mm 3 mps 755 mmHg 56%
19:00 +16°C° 0 mm 2 mps 755 mmHg 65%
20:00 +14°C° 0 mm 2 mps 755 mmHg 75%
21:00 +13°C° 0 mm 2 mps 756 mmHg 78%
22:00 +12°C° 0 mm 2 mps 756 mmHg 81%
23:00 +10°C° 0 mm 2 mps 756 mmHg 84%

12 May, Wednesday

Time Temperature Precipitation Wind Pressure Humidity
00:00 +10°C° 0 mm 2 mps 756 mmHg 85%
01:00 +9°C° 0 mm 2 mps 756 mmHg 86%
02:00 +9°C° 0 mm 2 mps 756 mmHg 87%
03:00 +10°C° 0 mm 1 mps 756 mmHg 86%
04:00 +10°C° 0 mm 1 mps 756 mmHg 84%
05:00 +11°C° 0 mm 1 mps 756 mmHg 83%
06:00 +13°C° 0 mm 2 mps 756 mmHg 73%
07:00 +15°C° 0 mm 2 mps 756 mmHg 64%
08:00 +17°C° 0 mm 2 mps 756 mmHg 55%
09:00 +18°C° 0 mm 2 mps 756 mmHg 49%
10:00 +20°C° 0 mm 2 mps 755 mmHg 43%
11:00 +21°C° 0 mm 3 mps 755 mmHg 37%
12:00 +22°C° 0 mm 3 mps 755 mmHg 36%
13:00 +22°C° 0 mm 3 mps 754 mmHg 35%
14:00 +24°C° 0 mm 3 mps 754 mmHg 34%
15:00 +24°C° 0 mm 3 mps 754 mmHg 38%
16:00 +22°C° 0 mm 3 mps 754 mmHg 42%
17:00 +22°C° 0 mm 3 mps 753 mmHg 46%
18:00 +19°C° 0 mm 2 mps 753 mmHg 56%
19:00 +17°C° 0 mm 2 mps 753 mmHg 66%
20:00 +15°C° 0 mm 2 mps 753 mmHg 75%
21:00 +14°C° 0 mm 2 mps 753 mmHg 78%
22:00 +13°C° 0 mm 2 mps 753 mmHg 81%
23:00 +12°C° 0 mm 2 mps 753 mmHg 83%
Show more